User: anonymous   Login
Location: Bois Neuf
(42.7667°N, 0.6333°E)
Time: 11:55:27
(UTC+00:00)
Language:

Cosmos 1937 Rocket - Orbit

View from above orbital plane
View from above orbital plane
View from above satellite
View from above satellite

Ground track
Ground track

The orbit data is extracted from the following two-line orbital elements,

1 19039U 88029B   20226.75781099 -.00000006  00000-0  65265-5 0  9993
2 19039  74.0501 334.9584 0024343 224.0037 135.9180 14.38476691696716
Epoch (UTC): 13 August 2020 18:11:14
Eccentricity: 0.0024343
inclination: 74.0501°
perigee height: 746 km
apogee height: 781 km
right ascension of ascending node: 334.9584°
argument of perigee: 224.0037°
revolutions per day: 14.38476691
mean anomaly at epoch: 135.9180°
orbit number at epoch: 69671

The dashed part of the orbit path shows where the satellite is in the earth's shadow,  

DLR